AirNav   Pilot Hours Calculator
 
 815 users online  

8FD4 Wuesthoff Hospital Emergency Heliport
Rockledge, Florida, USA

GOING TO ROCKLEDGE?


FAA INFORMATION EFFECTIVE 26 MARCH 2020

Location

FAA Identifier: 8FD4
Lat/Long: 28-20-04.9100N 080-43-24.0600W
28-20.081833N 080-43.401000W
28.3346972,-80.7233500
(estimated)
Elevation: 100 ft. / 30 m (estimated)
Variation: 04W (1990)
Time zone: UTC -4 (UTC -5 during Standard Time)
Zip code: 32955

Heliport Operations

Heliport use: Private use, MEDICAL USE.
Activation date: 04/1993
Control tower: no
ARTCC: JACKSONVILLE CENTER
FSS: SAINT PETERSBURG FLIGHT SERVICE STATION
Attendance: UNATNDD
Segmented circle: no
Lights: FOR PERIMETER LGTS CALL 407-636-2211.

Heliport Communications

WX AWOS-3 at COI (2.0 nm E): 119.025 (321-986-8864)
WX AWOS-3PT at TIX (12 nm N): 120.625 (321-567-6090)
WX ASOS at MLB (15 nm S): PHONE 321-951-7575
WX AWOS-3 at X21 (18 nm N): 119.725 (321-385-0384)

Nearby radio navigation aids

VOR radial/distance  VOR name  Freq  Var
MLBr348/14.5MELBOURNE VOR/DME110.0007W
ORLr111/34.6ORLANDO VORTAC112.2000E

Heliport Services

Runway Information

Helipad H1

Dimensions: 69 x 69 ft. / 21 x 21 m
Surface: asphalt, in good condition
Runway edge lights: PERI
Latitude: 28-20.081833N
Longitude: 080-43.401000W
Elevation: 100.0 ft.
Traffic pattern: leftleft

Heliport Ownership and Management from official FAA records

Ownership: Privately-owned
Owner: STEWARD ROCKLEDGE HOSPITAL INC
110 LONGWOOD AVE.
ROCKLEDGE, FL 32955
Phone 407-636-2211
Manager: CLARENCE WHIPPLE
110 LONGWOOD AVE.
ROCKLEDGE, FL 32955
Phone 407-636-2211

Additional Remarks

FOR CD CTC ORLANDO APCH AT 407-852-7553.

Instrument Procedures

There are no published instrument procedures at 8FD4.

Some nearby airports with instrument procedures:

KCOI - Merritt Island Airport (2 nm E)
KCOF - Patrick Air Force Base (8 nm SE)
KXMR - Cape Canaveral Air Force Station Skid Strip (11 nm NE)
KTIX - Space Coast Regional Airport (12 nm N)
KMLB - Melbourne International Airport (15 nm S)
KTTS - NASA Shuttle Landing Facility (17 nm N)
X21 - Arthur Dunn Air Park (18 nm N)
 
Loc | Ops | Rwys | IFR | FBO | Links
Com | Nav | Svcs | Stats | Notes


 
Area around 8FD4 (Wuesthoff Hospital Emergency Heliport)
 
Road maps at: MapQuest Bing Google
 
Aerial photo
No photo
 
Sectional chart

 
Airport distance calculator
Flying to Wuesthoff Hospital Emergency Heliport? Find the distance to fly.

From to 8FD4

Sunrise and sunset
Times for 06-Apr-2020
 Local
(UTC-4)
 Zulu
(UTC)
Morning civil twilight06:4310:43
Sunrise07:0711:07
Sunset19:4323:43
Evening civil twilight20:0700:07

Current date and time
Zulu (UTC)  06-Apr-2020 22:37:26
Local (UTC-4)  06-Apr-2020 18:37:26
 
METAR
KCOF 
10nm SE 
062156Z AUTO 09012KT 10SM FEW065 25/15 A3006 RMK AO2 SLP184 T02450146 $
KTIX 
11nm N 
062147Z 10006KT 7SM SCT036 BKN075 27/16 A3008
KXMR 
13nm NE 
062156Z AUTO 09009KT 10SM FEW034 BKN080 24/17 A3006 RMK AO2 SLP182 T02380173 $
KMLB 
15nm S 
062153Z 08010KT 10SM OVC037 24/16 A3005 RMK AO2 SLP174 T02390161
KTTS 
17nm N 
062156Z AUTO 11009KT 10SM BKN075 OVC090 24/16 A3007 RMK AO2 SLP187 T02410163 $
TAF
KTIX 
11nm N 
061735Z 0618/0718 09011G18KT P6SM SCT040 BKN080 FM070000 VRB03KT P6SM SCT025 FM071500 12007KT P6SM SCT035
KMLB 
15nm S 
061735Z 0618/0718 09013KT P6SM SCT025 BKN050 FM070300 10005KT P6SM SCT025 BKN035 FM071500 11007KT P6SM SCT035
NOTAMs
Click for the latest NOTAMs
NOTAMs are issued by the DoD/FAA and will open in a separate window not controlled by AirNav.

 

 
 

Would you like to see your business listed on this page?

 If your business provides an interesting product or service to pilots, flight crews, aircraft, or users of the Wuesthoff Hospital Emergency Heliport, you should consider listing it here.  To start the listing process, click on the button below
 
Add a business
 

Other Pages about Wuesthoff Hospital Emergency Heliport

Update a link
 
Copyright © AirNav, LLC. All rights reserved. Privacy Policy  Contact